15 daagse weersverwachting Ålesund (NO)

  • Overzicht
  • Per uur
  • 15 dagen
  • Extra
  • Vergelijk
  • Kaarten
  • Dagkaart
  • Meer »
  • Info
  • Statistieken
  • Directe link
    Temp 6h Neerslag Wind  
 08:12     17:27    Daglengte: 9:15 Morgen
01:00
1.1 mm
5
07:00
 
4
13:00
 
3
19:00
 
3
 08:09     17:30    Daglengte: 9:21 Donderdag 20 Feb
01:00
 
4
07:00
 
12
warningclass
13:00
3.3 mm
7
19:00
14.4 mm
6
 08:06     17:33    Daglengte: 9:27 Vrijdag 21 Feb
01:00
 
9
07:00
17.7 mm
10
13:00
31.8 mm
10
19:00
51.3 mm
10
Locatie info
Region: Møre og Romsdal
Latitude: 62.4715°N
Longitude: 6.1729°E
3 masl
Postcode: 6003
Temp/Neerslag /Baro Onweer/DauwpuntSneeuw
    Temp Baro 1h Neerslag Dauwpunt Wind UV BewolkingSneeuw  
 08:15     17:24    Daglengte: 9:09 Vandaag
22:00
Voelt als: 0.9°
991.3 hPa 1.1 mm
49%
3.5°
5
Windvlaag: 8.6 km/h
49%
23:00
Voelt als: 0.3°
991.7 hPa
25%
3.4°
6
Windvlaag: 9.3 km/h
48%
 08:12     17:27    Daglengte: 9:15 Morgen
00:00
Voelt als: 0.1°
992.0 hPa
25%
3.2°
6
Windvlaag: 10 km/h
63%
01:00
Voelt als: 0.7°
992.4 hPa
24%
2.8°
5
Windvlaag: 9.9 km/h
62%
02:00
Voelt als: 0.3°
993.0 hPa
24%
3.0°
6
Windvlaag: 8.7 km/h
55%
03:00
Voelt als: 0.7°
993.5 hPa
25%
3.1°
5
Windvlaag: 8.6 km/h
50%
04:00
Voelt als: 0.9°
993.9 hPa
23%
2.9°
4
Windvlaag: 7.5 km/h
33%
05:00
Voelt als: 1.2°
994.5 hPa
23%
2.6°
4
Windvlaag: 6.5 km/h
49%
06:00
Voelt als: 0.5°
995.2 hPa
23%
2.7°
5
Windvlaag: 7.7 km/h
45%
07:00
Voelt als: 1.4°
995.9 hPa
22%
2.9°
4
Windvlaag: 7.5 km/h
50%
08:00
Voelt als: 1.5°
996.7 hPa
23%
2.9°
3
Windvlaag: 5.6 km/h
48%
09:00
Voelt als: 1.5°
997.7 hPa
23%
2.9°
3
Windvlaag: 5.6 km/h
50%
10:00
Voelt als: 1.1°
998.4 hPa
58%
3.1°
4
Windvlaag: 7.8 km/h
65%
11:00
Voelt als: 1.7°
999.2 hPa
69%
3.0°
4
Windvlaag: 7.5 km/h
60%
12:00
Voelt als: 1.9°
999.8 hPa
63%
3.0°
4
Windvlaag: 7.3 km/h
48%
13:00
Voelt als: 2.7°
1000.3 hPa
63%
2.9°
3
Windvlaag: 6.5 km/h
52%
14:00
Voelt als: 2.8°
1000.8 hPa
56%
3.0°
3
Windvlaag: 6 km/h
49%
15:00
Voelt als: 3.5°
1001.1 hPa
15%
2.7°
2
Windvlaag: 6.3 km/h
44%
16:00
Voelt als: 3.2°
1001.3 hPa
14%
2.6°
2
Windvlaag: 4.7 km/h
35%
17:00
Voelt als: 2.7°
1001.4 hPa
14%
2.3°
3
Windvlaag: 4.5 km/h
12%
18:00
Voelt als: 2.0°
1001.3 hPa
14%
1.8°
3
Windvlaag: 4.8 km/h
11%
19:00
Voelt als: 1.3°
1001.0 hPa
14%
1.2°
3
Windvlaag: 3.9 km/h
8%
20:00
Voelt als: 0.7°
1000.4 hPa
14%
1.2°
3
Windvlaag: 4.2 km/h
7%
21:00
Voelt als: 0.4°
999.8 hPa
14%
1.3°
3
Windvlaag: 4.4 km/h
8%
22:00
Voelt als: -0.4°
999.1 hPa
14%
0.5°
3
Windvlaag: 4.3 km/h
34%
23:00
Voelt als: -0.6°
998.5 hPa
14%
-0.3°
4
Windvlaag: 4.7 km/h
61%
 08:09     17:30    Daglengte: 9:21 Donderdag 20 Feb
00:00
Voelt als: -0.6°
997.4 hPa
14%
-1.4°
4
Windvlaag: 5.1 km/h
86%
01:00
Voelt als: -0.4°
996.2 hPa
14%
-2.5°
4
Windvlaag: 5.3 km/h
85%
02:00
Voelt als: 0.1°
994.7 hPa
14%
-3.5°
4
Windvlaag: 5.5 km/h
90%
03:00
Voelt als: -0.1°
993.4 hPa
14%
-4.1°
8
Windvlaag: 11.5 km/h
91%
04:00
Voelt als: 0.6°
991.7 hPa
14%
-2.5°
7
Windvlaag: 13.2 km/h
90%
05:00
Voelt als: 1.0°
990.4 hPa
20%
-0.8°
8
Windvlaag: 12.3 km/h
90%
06:00
Voelt als: 0.4°
989.0 hPa
66%
-0.3°
9
Windvlaag: 13.5 km/h
91%
07:00
Voelt als: 0.2°
987.7 hPa
79%
-0.1°
12
Windvlaag: 17.6 km/h
73% warningclass
08:00
Voelt als: 0.3°
987.0 hPa
80%
0.1°
12
Windvlaag: 19.2 km/h
77% warningclass
09:00
Voelt als: 1.0°
986.9 hPa
81%
0.6°
10
Windvlaag: 17.6 km/h
89% warningclass
10:00
Voelt als: 1.8°
986.9 hPa
82%
1.3°
8
Windvlaag: 14.6 km/h
83%
11:00
Voelt als: 1.8°
986.4 hPa
82%
1.9°
8
Windvlaag: 11.6 km/h
83%
12:00
Voelt als: 1.6°
985.7 hPa 1.6 mm
82%
2.4°
7
Windvlaag: 11.4 km/h
90%
13:00
Voelt als: 1.1°
985.0 hPa 1.7 mm
82%
3.1°
7
Windvlaag: 10.6 km/h
90%
14:00
Voelt als: 1.5°
983.9 hPa 1.5 mm
82%
3.1°
6
Windvlaag: 9.5 km/h
89%
15:00
Voelt als: 0.2°
983.2 hPa 2.9 mm
82%
2.9°
7
Windvlaag: 11.8 km/h
86%
16:00
Voelt als: -1.0°
982.8 hPa 3.7 mm
100%
2.0°
6
Windvlaag: 13.5 km/h
88%
17:00
Voelt als: -1.4°
982.5 hPa 3.4 mm
100%
2.0°
6
Windvlaag: 9.2 km/h
88%1 cm
18:00
Voelt als: -1.4°
982.2 hPa 3.0 mm
100%
1.4°
5
Windvlaag: 10.3 km/h
88%1 cm
19:00
Voelt als: -1.8°
982.0 hPa
99%
1.4°
6
Windvlaag: 10.3 km/h
88%1 cm
20:00
Voelt als: -1.6°
982.0 hPa
37%
1.3°
6
Windvlaag: 10.2 km/h
89%2 cm
21:00
Voelt als: -1.7°
981.9 hPa
32%
0.3°
8
Windvlaag: 11.5 km/h
63%2 cm
22:00
Voelt als: -1.4°
981.8 hPa
28%
-0.2°
8
Windvlaag: 12.3 km/h
54%2 cm
23:00
Voelt als: -1.7°
981.6 hPa
24%
-0.0°
7
Windvlaag: 13 km/h
17%2 cm
 08:06     17:33    Daglengte: 9:27 Vrijdag 21 Feb
00:00
Voelt als: -1.9°
981.8 hPa
25%
-0.3°
8
Windvlaag: 13.9 km/h
31%2 cm
01:00
Voelt als: -2.7°
981.7 hPa
32%
1.3°
9
Windvlaag: 15.2 km/h
48%2 cm
02:00
Voelt als: -2.0°
981.3 hPa
32%
-0.1°
8
Windvlaag: 15 km/h
58%2 cm
03:00
Voelt als: -2.0°
980.7 hPa
32%
0.3°
10
Windvlaag: 16.1 km/h
50%2 cm
04:00
Voelt als: -1.4°
981.1 hPa 3.5 mm
100%
1.4°
10
Windvlaag: 16.7 km/h
61%3 cm
05:00
Voelt als: -0.7°
981.7 hPa 4.7 mm
100%
2.2°
10
Windvlaag: 16.5 km/h
68%4 cm
06:00
Voelt als: 0.1°
982.4 hPa 4.8 mm
100%
3.0°
10
Windvlaag: 16.4 km/h
71%4 cm
07:00
Voelt als: 0.8°
983.2 hPa 4.6 mm
100%
3.8°
10
Windvlaag: 7.5 km/h
57%4 cm
08:00
Voelt als: 1.1°
983.0 hPa 4.5 mm
100%
3.9°
10
Windvlaag: 14.5 km/h
66%4 cm
09:00
Voelt als: 1.0°
982.8 hPa 4.3 mm
100%
4.0°
11
Windvlaag: 14.5 km/h
79%4 cm
10:00
Voelt als: 1.4°
982.4 hPa 7.0 mm
100%
4.0°
11
Windvlaag: 15.5 km/h
92%4 cm
11:00
Voelt als: 1.6°
981.9 hPa 7.0 mm
49%
4.0°
11
Windvlaag: 16.9 km/h
91%3 cm
12:00
Voelt als: 1.8°
981.4 hPa 4.2 mm
100%
4.3°
11
Windvlaag: 18.5 km/h
93%3 cm warningclass
13:00
Voelt als: 1.7°
980.6 hPa 4.7 mm
100%
4.3°
10
Windvlaag: 9.2 km/h
100%3 cm
14:00
Voelt als: 1.6°
979.4 hPa 8.2 mm
100%
4.2°
10
Windvlaag: 20.1 km/h
100%3 cm warningclass
15:00
Voelt als: 1.6°
978.9 hPa 8.2 mm
100%
4.4°
10
Windvlaag: 21.2 km/h
100%3 cm warningclass
16:00
Voelt als: 1.9°
978.4 hPa 8.7 mm
100%
4.7°
10
Windvlaag: 23.1 km/h
100%3 cm warningclass
17:00
Voelt als: 2.1°
978.1 hPa 9.5 mm
100%
5.0°
10
Windvlaag: 22.6 km/h
100%3 cm warningclass
18:00
Voelt als: 2.3°
977.6 hPa 8.4 mm
100%
5.2°
10
Windvlaag: 24 km/h
100%3 cm warningclass
19:00
Voelt als: 2.3°
977.1 hPa 8.2 mm
100%
5.4°
10
Windvlaag: 3.5 km/h
100%2 cm
20:00
Voelt als: 2.3°
976.7 hPa 26.9 mm
100%
5.5°
11
Windvlaag: 23.9 km/h
100%2 cm warningclass
21:00
Voelt als: 2.2°
976.1 hPa 28.1 mm
100%
5.4°
11
Windvlaag: 23 km/h
99%2 cm warningclass
Temp/Neerslag /Baro Onweer/DauwpuntSneeuw
    Temp Baro Neerslag Dauwpunt Wind BewolkingSneeuw  
 08:15     17:24    Daglengte: 9:09 Vandaag
22:00
Voelt als: 0.9°
991.3 hPa 1.1 mm 3.5°
5
49%
 08:12     17:27    Daglengte: 9:15 Morgen
01:00
Voelt als: 0.7°
992.4 hPa   2.8°
5
62%
04:00
Voelt als: 0.9°
993.9 hPa   2.9°
4
33%
07:00
Voelt als: 1.4°
995.9 hPa   2.9°
4
50%
10:00
Voelt als: 1.1°
998.4 hPa   3.1°
4
65%
13:00
Voelt als: 2.7°
1000.3 hPa   2.9°
3
52%
16:00
Voelt als: 3.2°
1001.3 hPa   2.6°
2
35%
19:00
Voelt als: 1.3°
1001.0 hPa   1.2°
3
8%
22:00
Voelt als: -0.4°
999.1 hPa   0.5°
3
34%
 08:09     17:30    Daglengte: 9:21 Donderdag 20 Feb
01:00
Voelt als: -0.4°
996.2 hPa   -2.5°
4
85%
04:00
Voelt als: 0.6°
991.7 hPa   -2.5°
7
90%
07:00
Voelt als: 0.2°
987.7 hPa   -0.1°
12
73% warningclass
10:00
Voelt als: 1.8°
986.9 hPa   1.3°
8
83%
13:00
Voelt als: 1.1°
985.0 hPa 3.3 mm 3.1°
7
90%
16:00
Voelt als: -1.0°
982.8 hPa 8.1 mm 2.0°
6
88%
19:00
Voelt als: -1.8°
982.0 hPa 6.3 mm 1.4°
6
88%1 cm
22:00
Voelt als: -1.4°
981.8 hPa   -0.2°
8
54%2 cm
 08:06     17:33    Daglengte: 9:27 Vrijdag 21 Feb
01:00
Voelt als: -2.7°
981.7 hPa   1.3°
9
48%2 cm
04:00
Voelt als: -1.4°
981.1 hPa 3.5 mm 1.4°
10
61%3 cm
07:00
Voelt als: 0.8°
983.2 hPa 14.2 mm 3.8°
10
57%4 cm
10:00
Voelt als: 1.4°
982.4 hPa 15.8 mm 4.0°
11
92%4 cm
13:00
Voelt als: 1.7°
980.6 hPa 16.0 mm 4.3°
10
100%3 cm
16:00
Voelt als: 1.9°
978.4 hPa 25.1 mm 4.7°
10
100%3 cm warningclass
19:00
Voelt als: 2.3°
977.1 hPa 26.2 mm 5.4°
10
100%2 cm
22:00
Voelt als: 2.0°
975.7 hPa 84.2 mm 5.3°
11
96%2 cm warningclass
 08:03     17:36    Daglengte: 9:33 Zaterdag 22 Feb
01:00
Voelt als: 1.0°
974.9 hPa 92.9 mm 4.4°
11
85%2 cm
04:00
Voelt als: 0.6°
974.4 hPa 68.3 mm 3.9°
11
88%
07:00
Voelt als: 0.3°
973.9 hPa 69.7 mm 3.6°
11
87%
10:00
Voelt als: 0.5°
973.8 hPa 71.7 mm 3.6°
11
89%
13:00
Voelt als: 0.9°
973.8 hPa 73.1 mm 3.6°
10
90%
16:00
Voelt als: 1.1°
976.1 hPa 74.5 mm 3.8°
10
90%
19:00
Voelt als: 1.3°
978.5 hPa 75.9 mm 4.1°
10
90%
22:00
Voelt als: 1.5°
981.2 hPa 77.0 mm 4.0°
9
89%
 08:00     17:39    Daglengte: 9:39 Zondag 23 Feb
01:00
Voelt als: 1.6°
983.9 hPa 78.0 mm 3.9°
7
89%
04:00
Voelt als: 1.5°
986.3 hPa 83.4 mm 3.6°
7
87%
07:00
Voelt als: 1.4°
988.9 hPa 86.2 mm 3.1°
6
85%
10:00
Voelt als: 1.2°
990.2 hPa 92.1 mm 3.1°
5
87%
13:00
Voelt als: 1.4°
991.6 hPa 96.2 mm 2.9°
5
88%
16:00
Voelt als: 1.3°
992.3 hPa 98.8 mm 2.9°
5
89%
19:00
Voelt als: 1.8°
993.2 hPa 102.2 mm 2.7°
4
90%
22:00
Voelt als: 1.6°
996.6 hPa 103.5 mm 2.1°
3
87%
 07:56     17:42    Daglengte: 9:46 Maandag 24 Feb
01:00
Voelt als: 1.4°
999.8 hPa 104.8 mm 1.6°
3
85%
04:00
Voelt als: 0.4°
1002.1 hPa 105.1 mm 1.1°
4
79%
07:00
Voelt als: -0.5°
1004.3 hPa 105.3 mm 0.4°
4
72%
10:00
Voelt als: 0.4°
1005.0 hPa 110.6 mm 0.3°
3
78%
13:00
Voelt als: 1.6°
1005.4 hPa 110.8 mm -0.0°
3
83%
16:00
Voelt als: 1.8°
1000.5 hPa 110.9 mm 0.4°
2
82%
19:00
Voelt als: 1.5°
995.2 hPa 111.0 mm 0.7°
2
82%
22:00
Voelt als: 0.4°
993.6 hPa 111.4 mm 0.4°
3
86%
 07:53     17:45    Daglengte: 9:52 Dinsdag 25 Feb
01:00
Voelt als: -0.6°
992.2 hPa 111.6 mm 0.1°
4
90%
04:00
Voelt als: -1.3°
994.1 hPa 111.8 mm -0.4°
4
91%
07:00
Voelt als: -1.9°
995.9 hPa 113.3 mm -0.8°
4
92%
10:00
Voelt als: -0.3°
991.9 hPa 117.3 mm 0.1°
3
92%
13:00
Voelt als: 1.2°
988.0 hPa 120.4 mm 0.8°
3
92%
16:00
Voelt als: 0.9°
988.9 hPa 123.1 mm 1.1°
4
91%
19:00
Voelt als: 1.0°
990.0 hPa 251.2 mm 1.3°
3
90%
 07:50     17:48    Daglengte: 9:58 Woensdag 26 Feb
01:00
Voelt als: -0.4°
989.6 hPa 267.2 mm 0.9°
5
92%
07:00
Voelt als: -2.2°
993.9 hPa 290.5 mm -1.4°
4
90%
13:00
Voelt als: 0.3°
995.9 hPa 296.5 mm -1.2°
3
92%
19:00
Voelt als: -1.3°
996.4 hPa 299.0 mm -1.2°
4
89%
 07:47     17:50    Daglengte: 10:03 Donderdag 27 Feb
01:00
Voelt als: -1.1°
994.9 hPa 300.2 mm -1.4°
2
84%
07:00
Voelt als: -3.1°
992.1 hPa 300.5 mm -2.6°
3
92%
13:00
Voelt als: 0.3°
990.0 hPa 300.5 mm -2.2°
3
91%
19:00
Voelt als: -0.5°
988.3 hPa 300.5 mm -1.5°
3
92%
 07:44     17:53    Daglengte: 10:09 Vrijdag 28 Feb
01:00
Voelt als: -5.6°
968.4 hPa 301.4 mm -2.6°
9
1%
07:00
Voelt als: -3.4°
954.2 hPa 314.7 mm 2.4°
12
1%
13:00
Voelt als: -0.7°
955.6 hPa 340.4 mm 3.8°
10
1%
19:00
-2°
Voelt als: -3.8°
992.9 hPa 1.6 mm -5.4°
1
64%
 07:40     17:56    Daglengte: 10:16 Zaterdag 29 Feb
01:00
-3°
Voelt als: -4.5°
993.9 hPa 0.9 mm -6.1°
1
69%
07:00
-2°
Voelt als: -2.4°
994.0 hPa 1.5 mm -5.4°
0
79%
13:00
Voelt als: -2.1°
994.5 hPa 1.5 mm -2.5°
2
73%
19:00
-2°
Voelt als: -4.5°
996.6 hPa 2.2 mm -4.9°
2
76%
 07:37     17:59    Daglengte: 10:22 Zondag 01 Maa
01:00
-3°
Voelt als: -6.7°
998.0 hPa 1.2 mm -6.1°
2
70%
07:00
-4°
Voelt als: -6.8°
998.3 hPa 0.5 mm -6.7°
2
64%
13:00
-0°
Voelt als: -3.1°
997.5 hPa 0.5 mm -3.1°
3
64%
19:00
-2°
Voelt als: -4.9°
998.2 hPa 1.4 mm -4.3°
2
72%
 07:34     18:02    Daglengte: 10:28 Maandag 02 Maa
01:00
-1°
Voelt als: -3.3°
1000.1 hPa 2.1 mm -3.4°
2
76%
07:00
-1°
Voelt als: -3.2°
1001.5 hPa 1.9 mm -3.2°
2
72%
13:00
Voelt als: -1.2°
1002.8 hPa 1.6 mm -1.3°
2
71%
19:00
-2°
Voelt als: -5.4°
1004.7 hPa 1.3 mm -4.0°
3
62%
 07:31     18:05    Daglengte: 10:34 Dinsdag 03 Maa
01:00
-1°
Voelt als: -5.6°
1005.7 hPa 0.9 mm -3.9°
4
63%
07:00
-1°
Voelt als: -5.2°
1005.3 hPa 1.3 mm -3.4°
3
63%
13:00
Voelt als: -0.9°
1004.4 hPa 2.0 mm -0.3°
3
61%
19:00
-0°
Voelt als: -3.9°
1004.8 hPa 2.4 mm -2.6°
3
64%
 07:27     18:07    Daglengte: 10:40 Woensdag 04 Maa
01:00
-1°
Voelt als: -4.8°
1006.4 hPa 2.3 mm -3.0°
3
66%
07:00
-1°
Voelt als: -4.3°
1007.1 hPa 1.2 mm -2.9°
3
59%
13:00
Voelt als: -0.7°
1006.7 hPa 1.8 mm 0.2°
3
61%
19:00
Voelt als: -2.6°
1005.9 hPa 1.9 mm -1.5°
3
70%
  CAPE Lifted Index Hail Supercell Tornado SRH 3km CL BTM PRES CL TOP PRES Swiss DWD icon SMHI TS
 08:15     17:24    Daglengte: 9:09 Vandaag
22:00 106 J/kg 0.1 K 0 % 0 % 0 % 0 m²/s² 0 0 1.9 2
23:00 84 J/kg 0.0 K 0 % 0 % 0 % 0 m²/s² 0 0 1.86 2
 08:12     17:27    Daglengte: 9:15 Morgen
00:00 123 J/kg 0.1 K 0 % 0 % 0 % 0 m²/s² 0 0 1.57 2
01:00 156 J/kg 0.0 K 0 % 0 % 0 % 0 m²/s² 0 0 1.2 2
02:00 106 J/kg 0.3 K 0 % 0 % 0 % 0 m²/s² 0 0 2.04 2
03:00 74 J/kg 0.7 K 0 % 0 % 0 % 0 m²/s² 0 0 2.02 2
04:00 97 J/kg 0.6 K 0 % 0 % 0 % 0 m²/s² 0 0 2.16 2
05:00 2 J/kg 1.2 K 0 % 0 % 0 % 0 m²/s² 0 0 2.88 2
06:00 2 J/kg 1.4 K 0 % 0 % 0 % 0 m²/s² 0 0 3.02 2
07:00 2 J/kg 1.1 K 0 % 0 % 0 % 0 m²/s² 0 0 2.27 2
08:00 11 J/kg 1.6 K 0 % 0 % 0 % 0 m²/s² 0 0 2.32 2
09:00 1 J/kg 1.8 K 0 % 0 % 0 % 0 m²/s² 0 0 3.12 2
10:00 2 J/kg 2.2 K 0 % 0 % 0 % 0 m²/s² 0 0 2.77 2
11:00 18 J/kg 3.3 K 0 % 0 % 0 % 0 m²/s² 0 0 4.02 3
12:00 110 J/kg 3.3 K 0 % 0 % 0 % 0 m²/s² 0 0 4.32 2
13:00 192 J/kg 2.9 K 0 % 0 % 0 % 0 m²/s² 0 0 4.37 3
14:00 170 J/kg 3.4 K 0 % 0 % 0 % 0 m²/s² 0 0 5.08 3
15:00 155 J/kg 3.7 K 0 % 0 % 0 % 0 m²/s² 0 0 5.92 3
16:00 168 J/kg 4.0 K 0 % 0 % 0 % 0 m²/s² 0 0 6.49 2
17:00 98 J/kg 5.1 K 0 % 0 % 0 % 0 m²/s² 0 0 8.04 2
18:00 2 J/kg 6.4 K 0 % 0 % 0 % 0 m²/s² 0 0 10.03 0
19:00 0 J/kg 6.8 K 0 % 0 % 0 % 0 m²/s² 0 0 11.15 0
20:00 0 J/kg 7.6 K 0 % 0 % 0 % 0 m²/s² 0 0 11.74 0
21:00 0 J/kg 9.5 K 0 % 0 % 0 % 0 m²/s² 0 0 13.85 0
22:00 0 J/kg 11.9 K 0 % 0 % 0 % 0 m²/s² 0 0 16.49 0
23:00 0 J/kg 12.9 K 0 % 0 % 0 % 0 m²/s² 0 0 19.05 1
 08:09     17:30    Daglengte: 9:21 Donderdag 20 Feb
00:00 0 J/kg 13.2 K 0 % 0 % 0 % 0 m²/s² 0 0 20.58 3
01:00 0 J/kg 11.6 K 0 % 0 % 0 % 0 m²/s² 0 0 20.42 3
02:00 0 J/kg 10.7 K 0 % 0 % 0 % 0 m²/s² 0 0 15.29 3
03:00 0 J/kg 11.6 K 0 % 0 % 0 % 0 m²/s² 0 0 11.99 3
04:00 0 J/kg 9.5 K 0 % 0 % 0 % 0 m²/s² 0 0 9.89 3
05:00 0 J/kg 7.7 K 0 % 0 % 0 % 0 m²/s² 0 0 9.05 3
06:00 0 J/kg 6.7 K 0 % 0 % 0 % 0 m²/s² 0 0 8.71 3
07:00 0 J/kg 7.1 K 0 % 0 % 0 % 0 m²/s² 0 0 10.1 80
08:00 0 J/kg 6.1 K 0 % 0 % 0 % 0 m²/s² 0 0 8.29 80
09:00 0 J/kg 6.2 K 0 % 0 % 0 % 0 m²/s² 0 0 8.96 61
10:00 0 J/kg 6.1 K 0 % 0 % 0 % 0 m²/s² 0 0 8.56 61
11:00 0 J/kg 6.4 K 0 % 0 % 0 % 0 m²/s² 0 0 7.63 61
12:00 0 J/kg 6.3 K 0 % 0 % 0 % 0 m²/s² 0 0 6.84 61
13:00 1 J/kg 6.8 K 0 % 0 % 0 % 0 m²/s² 0 0 7.31 61
14:00 0 J/kg 7.8 K 0 % 0 % 0 % 0 m²/s² 0 0 8.22 61
15:00 0 J/kg 8.6 K 0 % 0 % 0 % 0 m²/s² 0 0 9.02 61
16:00 1 J/kg 8.5 K 0 % 0 % 0 % 0 m²/s² 0 0 8.98 63
17:00 1 J/kg 8.5 K 0 % 0 % 0 % 0 m²/s² 0 0 8.98 61
18:00 5 J/kg 8.0 K 0 % 0 % 0 % 0 m²/s² 0 0 8.54 61
19:00 5 J/kg 6.3 K 0 % 0 % 0 % 0 m²/s² 0 0 6.87 3
20:00 20 J/kg 5.4 K 0 % 0 % 0 % 0 m²/s² 0 0 5.97 3
21:00 8 J/kg 4.3 K 0 % 0 % 0 % 0 m²/s² 0 0 5.23 1
22:00 83 J/kg 2.7 K 0 % 0 % 0 % 0 m²/s² 0 0 4.35 0
23:00 20 J/kg 1.7 K 0 % 0 % 0 % 0 m²/s² 0 0 4.64 1
 08:06     17:33    Daglengte: 9:27 Vrijdag 21 Feb
00:00 19 J/kg 1.6 K 0 % 0 % 0 % 0 m²/s² 0 0 2.83 2
01:00 0 J/kg 1.3 K 0 % 0 % 0 % 0 m²/s² 0 0 3.31 2
02:00 0 J/kg 1.2 K 0 % 0 % 0 % 0 m²/s² 0 0 1.92 3
03:00 0 J/kg 0.3 K 0 % 0 % 0 % 0 m²/s² 0 0 2.22 3
04:00 0 J/kg 0.4 K 0 % 0 % 0 % 0 m²/s² 0 0 2.98 61
05:00 96 J/kg -0.9 K 0 % 0 % 0 % 0 m²/s² 0 0 0.69 80
06:00 24 J/kg 0.0 K 0 % 0 % 0 % 0 m²/s² 0 0 1.14 80
07:00 3 J/kg 1.2 K 0 % 0 % 0 % 0 m²/s² 0 0 3.99 80
08:00 157 J/kg 0.6 K 0 % 0 % 0 % 0 m²/s² 0 0 2.58 80
09:00 115 J/kg 1.5 K 0 % 0 % 0 % 0 m²/s² 0 0 3.93 80
10:00 133 J/kg 2.7 K 0 % 0 % 0 % 0 m²/s² 0 0 5.19 80
11:00 91 J/kg 3.8 K 0 % 0 % 0 % 0 m²/s² 0 0 7.19 3
12:00 9 J/kg 3.9 K 0 % 0 % 0 % 0 m²/s² 0 0 4.41 61
13:00 0 J/kg 2.6 K 0 % 0 % 0 % 0 m²/s² 0 0 3.23 61
14:00 1 J/kg 3.2 K 0 % 0 % 0 % 0 m²/s² 0 0 3.62 61
15:00 0 J/kg 3.2 K 0 % 0 % 0 % 0 m²/s² 0 0 3.8 61
16:00 0 J/kg 1.8 K 0 % 0 % 0 % 0 m²/s² 0 0 4.98 61
17:00 0 J/kg 1.9 K 0 % 0 % 0 % 0 m²/s² 0 0 7.9 63
18:00 0 J/kg 2.0 K 0 % 0 % 0 % 0 m²/s² 0 0 2.27 80
19:00 7 J/kg 0.9 K 0 % 0 % 0 % 0 m²/s² 0 0 3.6 3
20:00 70 J/kg 1.3 K 0 % 0 % 0 % 0 m²/s² 0 0 1.69
21:00 111 J/kg 0.7 K 0 % 0 % 0 % 0 m²/s² 0 0 1.15
Temp Baro Wind Neerslag
  EWN Forecast EWN WRFDA DWD ICON FMI HIRLAM MET Norway GFS
 08:15     17:24    Daglengte: 9:09 Vandaag
22:00 4.7° 991.3 hPa 5.3 m/s 1.1 mm 4.1° 989.2 hPa 6.7 m/s 2.6 mm 5.0° 991.0 hPa 2.2 m/s 0.6 mm 5.0° 991.2 hPa 5.4 m/s 0.0 mm 3.4° 991.6 hPa 5.2 m/s 4.7° 991.3 hPa 7.8 m/s
 08:12     17:27    Daglengte: 9:15 Morgen
01:00 4.5° 992.4 hPa 5.0 m/s 0.0 mm 4.0° 989.9 hPa 5.8 m/s 8.3 mm 4.7° 992.3 hPa 2.3 m/s 0.0 mm 4.9° 992.4 hPa 5.8 m/s 0.0 mm 3.2° 992.6 hPa 4.1 m/s 4.6° 992.9 hPa 7.0 m/s
04:00 4.5° 993.9 hPa 4.5 m/s 0.0 mm 3.8° 991.3 hPa 5.0 m/s 9.5 mm 4.7° 993.8 hPa 2.3 m/s 0.0 mm 4.8° 994.0 hPa 4.9 m/s 0.0 mm 3.4° 994.2 hPa 4.0 m/s 4.0° 994.5 hPa 5.8 m/s
07:00 4.3° 995.9 hPa 3.5 m/s 0.0 mm 2.5° 993.0 hPa 5.9 m/s 10.0 mm 4.6° 995.8 hPa 1.5 m/s 0.0 mm 4.7° 996.2 hPa 3.8 m/s 0.0 mm 3.5° 996.1 hPa 3.0 m/s 4.1° 996.7 hPa 7.2 m/s
10:00 4.6° 998.4 hPa 4.4 m/s 0.0 mm 3.2° 995.7 hPa 4.9 m/s 10.7 mm 4.9° 998.0 hPa 0.7 m/s 0.0 mm 4.9° 998.6 hPa 2.7 m/s 0.0 mm 3.4° 998.7 hPa 5.5 m/s 4.2° 999.3 hPa 6.9 m/s
13:00 5.0° 1000.3 hPa 2.8 m/s 0.0 mm 4.4° 997.1 hPa 2.4 m/s 14.3 mm 5.0° 1000.1 hPa 0.7 m/s 0.2 mm 5.3° 1000.6 hPa 0.5 m/s 0.0 mm 4.4° 1000.7 hPa 3.5 m/s 5.0° 1001.0 hPa 6.9 m/s
16:00 5.3° 1001.3 hPa 2.5 m/s 0.0 mm 4.7° 998.5 hPa 2.4 m/s 15.6 mm 5.2° 1000.5 hPa 1.4 m/s 0.0 mm 5.5° 1002.0 hPa 2.3 m/s 0.0 mm 5.2° 1001.7 hPa 2.7 m/s 5.0° 1002.0 hPa 4.5 m/s
19:00 3.9° 1001.0 hPa 2.7 m/s 0.0 mm 2.8° 998.5 hPa 6.7 m/s 16.1 mm 3.9° 1000.1 hPa 1.6 m/s 0.0 mm 4.8° 1002.6 hPa 2.9 m/s 0.0 mm 2.9° 1001.5 hPa 2.3 m/s 3.7° 1001.2 hPa 4.5 m/s
22:00 2.9° 999.1 hPa 3.4 m/s 0.0 mm 1.9° 997.5 hPa 8.7 m/s 16.1 mm 3.0° 998.6 hPa 2.1 m/s 0.0 mm 4.4° 1001.3 hPa 3.1 m/s 0.0 mm 1.3° 999.4 hPa 2.9 m/s 2.5° 1000.3 hPa 4.9 m/s
 08:09     17:30    Daglengte: 9:21 Donderdag 20 Feb
01:00 3.4° 996.2 hPa 4.4 m/s 0.0 mm 2.9° 994.6 hPa 11.4 m/s 16.1 mm 3.3° 996.1 hPa 3.3 m/s -0.0 mm 5.4° 998.7 hPa 6.5 m/s 0.0 mm 1.9° 996.2 hPa 2.8 m/s 2.3° 998.2 hPa 5.0 m/s
04:00 5.1° 991.7 hPa 7.3 m/s 0.0 mm 3.8° 990.0 hPa 13.1 m/s 16.1 mm 4.9° 991.6 hPa 4.0 m/s 0.0 mm 6.2° 994.8 hPa 9.6 m/s 0.0 mm 4.5° 991.7 hPa 6.9 m/s 2.9° 994.4 hPa 6.2 m/s
07:00 5.7° 987.7 hPa 11.6 m/s 0.0 mm 4.1° 987.2 hPa 15.4 m/s 16.1 mm 6.4° 988.1 hPa 5.2 m/s 0.4 mm 5.7° 989.8 hPa 12.7 m/s 0.0 mm 5.4° 987.6 hPa 12.4 m/s 3.6° 992.0 hPa 6.3 m/s
10:00 6.3° 986.9 hPa 8.2 m/s 0.0 mm 5.0° 986.4 hPa 11.9 m/s 16.2 mm 6.4° 986.5 hPa 2.5 m/s 1.0 mm 6.4° 988.0 hPa 11.7 m/s 0.0 mm 6.2° 987.2 hPa 7.4 m/s 3.1° 990.6 hPa 5.3 m/s
13:00 5.5° 985.0 hPa 7.0 m/s 3.3 mm 4.3° 984.2 hPa 8.6 m/s 17.2 mm 5.0° 983.7 hPa 2.1 m/s 3.0 mm 6.3° 985.7 hPa 8.8 m/s 0.0 mm 5.3° 985.2 hPa 4.9 m/s 3.4° 987.0 hPa 4.3 m/s
16:00 3.4° 982.8 hPa 5.8 m/s 8.1 mm 2.7° 979.1 hPa 3.5 m/s 24.8 mm 2.3° 982.4 hPa 2.4 m/s 5.9 mm 3.2° 983.0 hPa 5.5 m/s 0.9° 981.5 hPa 3.2 m/s
19:00 3.0° 982.0 hPa 6.3 m/s 6.3 mm 2.6° 978.7 hPa 7.0 m/s 34.9 mm 2.7° 982.5 hPa 2.1 m/s 3.0 mm 2.2° 982.0 hPa 6.3 m/s 2.0° 980.9 hPa 10.1 m/s
22:00 3.7° 981.8 hPa 7.8 m/s 0.0 mm 3.2° 979.4 hPa 8.8 m/s 39.8 mm 3.9° 981.7 hPa 5.6 m/s 0.0 mm 3.4° 981.8 hPa 7.4 m/s 3.1° 983.4 hPa 9.4 m/s
 08:06     17:33    Daglengte: 9:27 Vrijdag 21 Feb
01:00 3.0° 981.7 hPa 8.9 m/s 0.0 mm 2.6° 978.5 hPa 11.3 m/s 40.1 mm 4.1° 981.3 hPa 5.1 m/s 0.0 mm 1.8° 982.0 hPa 8.7 m/s 3.2° 983.8 hPa 9.4 m/s
04:00 4.3° 981.1 hPa 9.9 m/s 3.5 mm 2.8° 976.7 hPa 10.1 m/s 43.1 mm 4.4° 979.9 hPa 7.8 m/s 0.3 mm 4.0° 981.5 hPa 9.4 m/s 2.5° 982.6 hPa 9.3 m/s
07:00 6.0° 983.2 hPa 10.4 m/s 14.2 mm 3.4° 977.2 hPa 12.8 m/s 60.6 mm 4.5° 982.8 hPa 6.6 m/s 3.3 mm 6.4° 983.5 hPa 9.7 m/s 4.2° 981.8 hPa 11.6 m/s
10:00 6.5° 982.4 hPa 10.7 m/s 15.8 mm 5.3° 980.0 hPa 13.1 m/s 61.0 mm 5.4° 984.7 hPa 10.0 m/s 1.0 mm 6.8° 981.5 hPa 9.7 m/s 5.9° 983.5 hPa 17.3 m/s
13:00 6.7° 980.6 hPa 10.2 m/s 16.0 mm 4.1° 979.9 hPa 9.5 m/s 61.9 mm 6.4° 981.5 hPa 7.2 m/s 0.5 mm 7.1° 979.6 hPa 9.7 m/s 4.8° 983.7 hPa 10.6 m/s
16:00 6.8° 978.4 hPa 10.2 m/s 25.1 mm 5.8° 976.4 hPa 14.9 m/s 65.5 mm 6.4° 979.2 hPa 9.0 m/s 4.8 mm 7.2° 978.5 hPa 9.8 m/s 5.1° 980.3 hPa 12.0 m/s
19:00 7.1° 977.1 hPa 10.2 m/s 26.2 mm 6.7° 974.5 hPa 16.3 m/s 70.4 mm 6.8° 977.6 hPa 7.6 m/s 4.2 mm 7.4° 977.4 hPa 9.9 m/s 5.5° 978.6 hPa 11.0 m/s
22:00 7.0° 975.7 hPa 10.8 m/s 84.2 mm 6.4° 971.8 hPa 12.3 m/s 84.2 mm 7.1° 976.3 hPa 10.6 m/s 5.6° 975.7 hPa 9.1 m/s
 08:03     17:36    Daglengte: 9:33 Zaterdag 22 Feb
01:00 6.3° 974.9 hPa 11.3 m/s 92.9 mm 3.9° 972.9 hPa 12.2 m/s 92.9 mm 6.7° 975.2 hPa 11.2 m/s 6.1° 976.2 hPa 16.0 m/s
04:00 6.0° 974.4 hPa 11.3 m/s 68.3 mm 6.1° 974.1 hPa 10.7 m/s 5.3° 977.1 hPa 17.8 m/s 68.3 mm
07:00 5.7° 973.9 hPa 11.1 m/s 69.7 mm 5.8° 973.6 hPa 10.5 m/s 5.1° 977.8 hPa 17.3 m/s 69.7 mm
10:00 5.8° 973.8 hPa 10.8 m/s 71.7 mm 6.0° 973.5 hPa 10.1 m/s 4.0° 977.4 hPa 18.2 m/s 71.7 mm
13:00 6.0° 973.8 hPa 10.3 m/s 73.1 mm 6.2° 973.4 hPa 9.7 m/s 4.1° 978.0 hPa 17.3 m/s 73.1 mm
16:00 6.2° 976.1 hPa 10.1 m/s 74.5 mm 6.3° 975.9 hPa 9.6 m/s 4.6° 977.9 hPa 16.6 m/s 74.5 mm
19:00 6.2° 978.5 hPa 9.9 m/s 75.9 mm 6.4° 978.4 hPa 9.4 m/s 4.5° 979.6 hPa 15.7 m/s 75.9 mm
22:00 6.2° 981.2 hPa 8.8 m/s 77.0 mm 6.3° 981.2 hPa 8.3 m/s 4.7° 981.1 hPa 13.9 m/s 77.0 mm
 08:00     17:39    Daglengte: 9:39 Zondag 23 Feb
01:00 5.9° 983.9 hPa 7.2 m/s 78.0 mm 6.2° 984.1 hPa 7.2 m/s 2.6° 981.3 hPa 6.8 m/s 78.0 mm
04:00 5.7° 986.3 hPa 6.8 m/s 83.4 mm 5.8° 986.9 hPa 6.5 m/s 4.7° 980.3 hPa 10.8 m/s 83.4 mm
07:00 5.3° 988.9 hPa 5.6 m/s 86.2 mm 5.4° 989.6 hPa 5.7 m/s 4.1° 981.2 hPa 4.8 m/s 86.2 mm
10:00 5.1° 990.2 hPa 5.5 m/s 92.1 mm 5.3° 990.7 hPa 5.3 m/s 2.9° 985.4 hPa 7.0 m/s 92.1 mm
13:00 5.1° 991.6 hPa 5.1 m/s 96.2 mm 5.2° 991.7 hPa 5.0 m/s 4.5° 990.2 hPa 6.6 m/s 96.2 mm
16:00 4.9° 992.3 hPa 4.9 m/s 98.8 mm 5.1° 992.2 hPa 4.0 m/s 2.9° 994.3 hPa 14.8 m/s 98.8 mm
19:00 4.9° 993.2 hPa 3.8 m/s 102.2 mm 5.0° 992.6 hPa 3.0 m/s 3.3° 999.8 hPa 12.6 m/s 102.2 mm
22:00 4.5° 996.6 hPa 3.4 m/s 103.5 mm 4.7° 995.7 hPa 3.0 m/s 2.3° 1006.9 hPa 8.9 m/s 103.5 mm
 07:56     17:42    Daglengte: 9:46 Maandag 24 Feb
01:00 4.2° 999.8 hPa 3.3 m/s 104.8 mm 4.4° 998.7 hPa 2.9 m/s 2.3° 1012.1 hPa 7.1 m/s 104.8 mm
04:00 3.6° 1002.1 hPa 3.6 m/s 105.1 mm 3.8° 1001.0 hPa 3.0 m/s 1.7° 1014.1 hPa 9.3 m/s 105.1 mm
07:00 3.0° 1004.3 hPa 3.8 m/s 105.3 mm 3.1° 1003.4 hPa 3.2 m/s 1.4° 1014.5 hPa 10.7 m/s 105.3 mm
10:00 3.5° 1005.0 hPa 3.3 m/s 110.6 mm 3.7° 1004.0 hPa 2.8 m/s 0.8° 1014.9 hPa 9.2 m/s 110.6 mm
13:00 4.1° 1005.4 hPa 2.8 m/s 110.8 mm 4.3° 1004.7 hPa 2.3 m/s 2.1° 1013.4 hPa 7.8 m/s 110.8 mm
16:00 4.0° 1000.5 hPa 2.4 m/s 110.9 mm 4.1° 999.7 hPa 2.1 m/s 2.6° 1009.1 hPa 4.8 m/s 110.9 mm
19:00 3.7° 995.2 hPa 2.3 m/s 111.0 mm 3.9° 994.7 hPa 2.0 m/s 1.7° 1000.3 hPa 6.1 m/s 111.0 mm
22:00 3.3° 993.6 hPa 3.2 m/s 111.4 mm 3.5° 993.9 hPa 2.8 m/s 1.0° 990.6 hPa 7.6 m/s 111.4 mm
 07:53     17:45    Daglengte: 9:52 Dinsdag 25 Feb
01:00 3.0° 992.2 hPa 3.9 m/s 111.6 mm 3.2° 993.0 hPa 3.5 m/s 0.3° 983.9 hPa 8.3 m/s 111.6 mm
04:00 2.3° 994.1 hPa 3.7 m/s 111.8 mm 2.4° 995.6 hPa 3.2 m/s 0.9° 977.4 hPa 9.6 m/s 111.8 mm
07:00 1.7° 995.9 hPa 3.6 m/s 113.3 mm 1.6° 998.2 hPa 2.9 m/s 3.2° 970.6 hPa 11.3 m/s 113.3 mm
10:00 3.0° 991.9 hPa 3.5 m/s 117.3 mm 2.8° 994.2 hPa 2.8 m/s 4.4° 965.8 hPa 11.4 m/s 117.3 mm
13:00 4.1° 988.0 hPa 3.4 m/s 120.4 mm 4.1° 990.3 hPa 2.6 m/s 4.3° 962.8 hPa 12.1 m/s 120.4 mm
16:00 4.0° 988.9 hPa 3.5 m/s 123.1 mm 4.0° 991.5 hPa 2.1 m/s 4.1° 961.1 hPa 18.5 m/s 123.1 mm
19:00 3.9° 990.0 hPa 3.3 m/s 128.1 mm 3.9° 992.6 hPa 1.7 m/s 3.7° 960.9 hPa 20.6 m/s 128.1 mm
 07:50     17:48    Daglengte: 9:58 Woensdag 26 Feb
01:00 3.5° 989.6 hPa 4.8 m/s 135.9 mm 3.4° 991.7 hPa 3.4 m/s 4.6° 967.1 hPa 19.7 m/s 135.9 mm
07:00 1.9° 993.9 hPa 4.2 m/s 146.4 mm 1.7° 995.0 hPa 3.4 m/s 3.5° 981.7 hPa 13.4 m/s 146.4 mm
13:00 3.3° 995.9 hPa 3.1 m/s 149.0 mm 3.3° 996.2 hPa 2.3 m/s 3.0° 992.2 hPa 12.3 m/s 149.0 mm
19:00 2.4° 996.4 hPa 3.8 m/s 149.7 mm 2.4° 996.1 hPa 3.5 m/s 2.1° 999.1 hPa 7.5 m/s 149.7 mm
 07:47     17:50    Daglengte: 10:03 Donderdag 27 Feb
01:00 1.4° 994.9 hPa 2.2 m/s 150.2 mm 1.4° 993.9 hPa 1.9 m/s 0.8° 1005.4 hPa 5.3 m/s 150.2 mm
07:00 0.4° 992.1 hPa 3.1 m/s 150.2 mm 0.5° 991.0 hPa 2.8 m/s -1.0° 1004.6 hPa 6.1 m/s 150.2 mm
13:00 2.9° 990.0 hPa 2.6 m/s 150.2 mm 2.9° 989.2 hPa 2.3 m/s 2.5° 999.2 hPa 5.9 m/s 150.2 mm
19:00 2.3° 988.3 hPa 2.7 m/s 150.2 mm 2.4° 988.4 hPa 2.3 m/s 1.3° 987.4 hPa 7.0 m/s 150.2 mm
 07:44     17:53    Daglengte: 10:09 Vrijdag 28 Feb
01:00 0.8° 968.4 hPa 8.8 m/s 151.2 mm 0.8° 968.4 hPa 8.8 m/s 151.2 mm
07:00 3.1° 954.2 hPa 12.1 m/s 161.8 mm 3.1° 954.2 hPa 12.1 m/s 161.8 mm
13:00 4.9° 955.6 hPa 10.4 m/s 172.6 mm 4.9° 955.6 hPa 10.4 m/s 172.6 mm
19:00 -2.4° 992.9 hPa 1.1 m/s 1.6 mm
 07:40     17:56    Daglengte: 10:16 Zaterdag 29 Feb
01:00 -3.3° 993.9 hPa 1.0 m/s 0.9 mm
07:00 -2.4° 994.0 hPa 0.3 m/s 1.5 mm
13:00 0.4° 994.5 hPa 2.1 m/s 1.5 mm
19:00 -2.3° 996.6 hPa 1.6 m/s 2.2 mm
 07:37     17:59    Daglengte: 10:22 Zondag 01 Maa
01:00 -3.3° 998.0 hPa 2.3 m/s 1.2 mm
07:00 -3.6° 998.3 hPa 2.1 m/s 0.5 mm
13:00 -0.0° 997.5 hPa 2.5 m/s 0.5 mm
19:00 -1.8° 998.2 hPa 2.3 m/s 1.4 mm
 07:34     18:02    Daglengte: 10:28 Maandag 02 Maa
01:00 -1.0° 1000.1 hPa 1.7 m/s 2.1 mm
07:00 -1.0° 1001.5 hPa 1.8 m/s 1.9 mm
13:00 1.3° 1002.8 hPa 2.2 m/s 1.6 mm
19:00 -1.6° 1004.7 hPa 2.9 m/s 1.3 mm
 07:31     18:05    Daglengte: 10:34 Dinsdag 03 Maa
01:00 -1.2° 1005.7 hPa 3.8 m/s 0.9 mm
07:00 -1.2° 1005.3 hPa 3.4 m/s 1.3 mm
13:00 1.8° 1004.4 hPa 2.5 m/s 2.0 mm
19:00 -0.3° 1004.8 hPa 3.0 m/s 2.4 mm
 07:27     18:07    Daglengte: 10:40 Woensdag 04 Maa
01:00 -0.8° 1006.4 hPa 3.4 m/s 2.3 mm
07:00 -0.5° 1007.1 hPa 3.2 m/s 1.2 mm
13:00 2.2° 1006.7 hPa 2.8 m/s 1.8 mm
19:00 0.9° 1005.9 hPa 3.2 m/s 1.9 mm
FMI Hirlam - 7.5 km EWN WRFDA - 12 km DWD ICON - 7 km GFS - 25 km Basiskaart






























































Updatetijd (Europe/Amsterdam) Resolutie Lengte Stap
FMI Hirlam 18:00, 00:00, 06:00, 12:00 7.5 km 49h 1h
EWN WRFDA 20:30, 02:30, 08:30, 14:30 12 km 73h 1h
DWD ICON 16:45, 22:45, 04:45, 10:45 7 km 75h 1h
GFS 18:30, 00:30, 06:30, 12:30 25 km 237h 3h
30+ mm
25-30 mm
20-25 mm
15-20 mm
10-15 mm
6-10 mm
4-6 mm
2-4 mm
1-2 mm
0.5-1 mm
0.2-0.5 mm
0.1-0.2 mm
30+ mm
25-30 mm
20-25 mm
15-20 mm
10-15 mm
6-10 mm
4-6 mm
2-4 mm
1-2 mm
0.5-1 mm
0.2-0.5 mm
0.1-0.2 mm
Sneeuwval
Natte sneeuw
Hagel
Vorst
30+ mm
25-30 mm
20-25 mm
15-20 mm
10-15 mm
6-10 mm
4-6 mm
2-4 mm
1-2 mm
0.5-1 mm
0.2-0.5 mm
0.1-0.2 mm
Sneeuwval
Natte sneeuw
Hagel
Vorst
Onweer
50 mm
40 mm
30 mm
26 mm
22 mm
18 mm
14 mm
10 mm
9 mm
8 mm
7 mm
6 mm
5 mm
4.5 mm
4 mm
3.5 mm
3 mm
2.5 mm
2 mm
1.5 mm
1 mm
0.8 mm
0.6 mm
0.4 mm
0.2 mm
0.05 mm
35°
30°
25°
20°
15°
10°
-5°
-10°
-15°
-20°
-25°
-30°
-35°
120> km/h
105 km/h
90 km/h
75 km/h
60 km/h
50 km/h
40 km/h
30 km/h
20 km/h
10 km/h
0 km/h
2600 J/kg
2400 J/kg
2200 J/kg
2000 J/kg
1800 J/kg
1600 J/kg
1400 J/kg
1200 J/kg
1000 J/kg
800 J/kg
600 J/kg
400 J/kg
200 J/kg
70 dBZ
65 dBZ
60 dBZ
55 dBZ
50 dBZ
45 dBZ
40 dBZ
35 dBZ
30 dBZ
25 dBZ
20 dBZ
15 dBZ
10 dBZ
5 dBZ
-1 K
-2 K
-3 K
-4 K
-5 K
-6 K
-7 K
-8 K
-9 K
950 m²/s²
900 m²/s²
850 m²/s²
800 m²/s²
750 m²/s²
700 m²/s²
650 m²/s²
600 m²/s²
550 m²/s²
500 m²/s²
450 m²/s²
400 m²/s²
350 m²/s²
300 m²/s²
250 m²/s²
200 m²/s²
150 m²/s²
100 m²/s²
46 m/s
44 m/s
42 m/s
40 m/s
38 m/s
36 m/s
34 m/s
32 m/s
30 m/s
28 m/s
26 m/s
24 m/s
22 m/s
20 m/s
16 m/s
12 m/s
8 m/s
4 m/s
30 m/s
28 m/s
26 m/s
24 m/s
22 m/s
20 m/s
18 m/s
16 m/s
14 m/s
12 m/s
10 m/s
8 m/s
6 m/s
4 m/s
2 m/s
3.0
2.8
2.6
2.4
2.2
2.0
1.8
1.6
1.4
1.2
1.0
0.8
0.6
0.4
0.2
15
14
13
12
11
10
9
8
7
6
5
4
3
2
1
90%
80%
70%
60%
50%
40%
30%
20%
10%
42
40
38
36
34
32
30
28
26
24
22
20
18
16
14
12
90+ cm
80-90 cm
70-80 cm
60-70 cm
50-60 cm
40-50 cm
30-40 cm
20-30 cm
10-20 cm
1-10 cm
Sneeuwval
Natte sneeuw
Regen
>120 mm
115 mm
110 mm
105 mm
100 mm
95 mm
90 mm
85 mm
80 mm
75 mm
70 mm
65 mm
60 mm
55 mm
50 mm
45 mm
45 mm
40 mm
35 mm
30 mm
25 mm
20 mm
15 mm
10 mm
5 mm
0.1 mm
960 hPa
880 hPa
800 hPa
720 hPa
640 hPa
560 hPa
584 gpdm
568 gpdm
552 gpdm
536 gpdm
520 gpdm
504 gpdm
488 gpdm
Extreem zwaar Noodweer Kans op onweer
15% 15% 5% 50% 15%

Dag




Kaart






35°
30°
25°
20°
15°
10°
-5°
-10°
-15°
-20°
-25°
-30°
-35°
120> km/h
105 km/h
90 km/h
75 km/h
60 km/h
50 km/h
40 km/h
30 km/h
20 km/h
10 km/h
0 km/h
Extreem zwaar Noodweer Kans op onweer
15% 15% 5% 50% 15%
>120 mm
115 mm
110 mm
105 mm
100 mm
95 mm
90 mm
85 mm
80 mm
75 mm
70 mm
65 mm
60 mm
55 mm
50 mm
45 mm
45 mm
40 mm
35 mm
30 mm
25 mm
20 mm
15 mm
10 mm
5 mm
0.1 mm
Onweer risico kaarten - De groene en gele kleur geeft de kans op onweer aan binnen 40 km van een punt. Oranje, rood en violet hebben hetzelfde niveau zoals je het ziet op estofex.org waaronder ook de kans op hagel en supercells.

dBZ - dBZ staat voor decibel ten opzichte van Z.

Cape - Convective available potential energy (CAPE), is de totale hoeveelheid energie die een luchtpakketje nodig heeft om zover mogelijk te stijgen in de atmosfeer.

K Index - K-Index wordt berekend door de Vertical Totals (VT) en het verschil tussen de 850 hPa temperatuur en de 700 hPa dauwpuntsdepressie (Tdd 700) bij elkaar op te tellen.

TT Index - Convectie index wordt gebruikt voor het voorspellen van zware buien of onweer.

WRF - The Weather Research and Forecasting (WRF) is een volgende generatie mesoscale numeriek weersvoorspelling systeem ontworpen om zowel de operationele planning als het atmosferisch onderzoek te dienen. WRF is a cooperatie tussen het National Center for Atmospheric Research (NCAR), National Centers for Environmental Prediction (NCEP), Forecast Systems Laboratory (FSL), Air Force Weather Agency (AFWA), Naval Research Laboratory, University of Oklahoma, en de Federal Aviation Administration (FAA). Deze software draait op onze server.

WRFDA - Een meer geavanceerde versie van WRF

Arome - Het 2.5 km Arome model. Verzorgd door het Noors Meteorologisch Instituut.

MET Norway - De proff-default 4km meteorological data is een beste keus selectie van meteorologische modellen gebruikt door met.no die zijn geïnterpoleerd tot een gemeenschappelijke dataset. Verzorgd door het Noorse Meteorologisch Instituut.

SMHI - Het Hirlam model verzorgd door het Zweeds meteorologisch instituut.

FMI - Het Hirlam model verzorgd door het Fins meteorologisch instituut. Dekking alleen Finland.

GFS - Het Global Forecast Systeem (GFS) is een wereldwijd numerieke weersvoorspelling computermodel, gerund door NOAA.

GEM-GDPS - Het GEM-GDPS is a wereldwijd numeriek weersvoorspelling computermodel verzorgd door het Canadees Meteorologisch Centrum.

Credits/Info: Dank aan Stefan Gofferje van sääkeskus.fi voor enkele formules van GrADS. Info: Wikipedia.

Betrouwbaarheid van de verwachting

NB! 2015-03-29: Rebuilding the accuracy-test!

EWNACC
Day 1 Good forecasts

Dag 1 Tmax

Dag 2 Tmax

Geladen verwachtingen TOP 50

Totaal geladen verwachtingen:
Plaats Latitude Longitude Verwachtingen Plaats Latitude Longitude Verwachtingen